Regional Weather Roundup
Issued by NWS

Home | Current Version | Previous Version | Text Only | Print | Product List | Glossary On
Versions: 1 2 3 4 5 6 7 8 9 10 11 12 13 14 15 16 17 18 19 20 21 22 23 24 25 26 27 28 29 30 31 32 33 34 35 36 37 38 39 40 41 42 43 44 45 46 47 48 49 50
000
ASUS43 KOAX 012210
RWRNE

WEATHER ROUNDUP FOR NEBRASKA
NATIONAL WEATHER SERVICE OMAHA NE
500 PM CDT WED APR 01 2015

NOTES: SATELLITE DATA IS BEING USED TO AUGMENT CLOUD COVER ABOVE
       12000 FEET.
       "FAIR" INDICATES FEW OR NO CLOUDS BELOW 12,000 FEET WITH NO
       SIGNIFICANT WEATHER AND/OR OBSTRUCTIONS TO VISIBILITY.

  * THESE STATIONS DO NOT REPORT WEATHER SUCH AS RAIN...SNOW OR FOG.

NEZ001>004-019>022-054>056-012300-
NEBRASKA PANHANDLE

CITY           SKY/WX    TMP DP  RH WIND       PRES   REMARKS
SCOTTSBLUFF    PTSUNNY   66  16  14 W24G33    29.71S
ALLIANCE       CLOUDY    63  35  35 N16       29.71R
CHADRON        MOSUNNY   60  34  37 NW21G29   29.76R
KIMBALL        CLOUDY    62  31  31 NW17G28   29.72R
SIDNEY         PTSUNNY   66  24  20 NW25G32   29.72R
$$

NEZ057>060-069>072-079>082-012300-
SOUTHWEST NEBRASKA

CITY           SKY/WX    TMP DP  RH WIND       PRES   REMARKS
NORTH PLATTE   PTSUNNY   76  31  19 N16G24    29.61R
IMPERIAL       SUNNY     79  26  14 N13G24    29.61F
LEXINGTON      CLOUDY    82  35  19 CALM      29.55S
MCCOOK         PTSUNNY   87  29  12 VRB7      29.54F
OGALLALA       MOSUNNY   75  32  20 NE9G21    29.64S
$$

NEZ005>010-023>029-035>040-094-012300-
NORTH CENTRAL NEBRASKA

CITY           SKY/WX    TMP DP  RH WIND       PRES   REMARKS
VALENTINE      PTSUNNY   65  34  31 N14G24    29.69R
AINSWORTH      CLOUDY    65  36  34 NW20G28   29.66R
BROKEN BOW     PTSUNNY   71  39  31 N26       29.59R
O`NEILL        PTSUNNY   68  40  35 NW22      29.61R
ORD            PTSUNNY   80  35  19 N25G35    29.54R
THEDFORD       PTSUNNY   69  39  33 N18G24    29.66F
$$

NEZ041-046>049-061>064-073>077-083>087-012300-
SOUTH CENTRAL NEBRASKA

CITY           SKY/WX    TMP DP  RH WIND       PRES   REMARKS
GRAND ISLAND   PTSUNNY   86  42  21 S20G30    29.54F
AURORA         MOSUNNY   82  44  25 S23G33    29.54F
HASTINGS       MOSUNNY   84  45  25 S21G29    29.53F
HEBRON         SUNNY     83  41  22 S25G35    29.56F
HOLDREGE       MOSUNNY   83  38  20 S13G23    29.53F
KEARNEY *      PTSUNNY   84  43  23 S22G31    29.53F
YORK           MOSUNNY   84  46  26 S24G35    29.55F
$$

NEZ011>018-030>034-042>045-012300-
NORTHEAST NEBRASKA

CITY           SKY/WX    TMP DP  RH WIND       PRES   REMARKS
NORFOLK        PTSUNNY   85  45  24 S29G40    29.50F
ALBION         PTSUNNY   84  39  20 SW22G33   29.53S
BLAIR          SUNNY     84  41  21 S28G37    29.56F
COLUMBUS *     MOSUNNY   82  45  26 S23G36    29.56F
FREMONT        SUNNY     85  41  21 S21G30    29.56F
TEKAMAH        SUNNY     87  43  21 S33G44    29.54S HAZE
WAYNE          PTSUNNY   86  44  23 SW28G38   29.53F
$$

NEZ050>053-065>068-078-088>093-012300-
SOUTHEAST NEBRASKA

CITY           SKY/WX    TMP DP  RH WIND       PRES   REMARKS
LINCOLN        SUNNY     85  46  25 S25G33    29.56F
OMAHA EPPLEY   MOSUNNY   84  46  26 S33G39    29.57F
BEATRICE       SUNNY     82  48  30 S21G32    29.58F
FALLS CITY     SUNNY     81  51  35 S24G37    29.63F
NEBRASKA CITY  SUNNY     82  42  24 S26G37    29.61F
PLATTSMOUTH    SUNNY     83  38  20 S28G35    29.60F
$$

NEZ044-045-051>053-067-012300-
OMAHA AREA

CITY           SKY/WX    TMP DP  RH WIND       PRES   REMARKS
OMAHA EPPLEY   MOSUNNY   84  46  26 S33G39    29.57F
BLAIR          SUNNY     84  41  21 S28G37    29.56F
FREMONT        SUNNY     85  41  21 S21G30    29.56F
MILLARD        SUNNY     83  47  27 S25       29.57F
OFFUTT AFB     SUNNY     83  46  26 S21G33    29.57F
PLATTSMOUTH    SUNNY     83  38  20 S28G35    29.60F
WAHOO          FAIR      85  37  18 S26G33    29.56F
$$


USA.gov is the U.S. government's official web portal to all federal, state and local government web resources and services.